Time,TemperatureF,DewpointF,PressureIn,WindDirection,WindDirectionDegrees,WindSpeedMPH,WindSpeedGustMPH,Humidity,HourlyPrecipIn,Conditions,Clouds,dailyrainin,SoftwareType,DateUTC
2013-05-28 00:00:00,57.0,41.4,29.31,SE,129,0.0,0.0,56,0.00,,,0.00,Wunderground v.1.15,2013-05-28 04:00:00,
2013-05-28 00:05:00,57.0,41.0,29.31,SE,129,0.0,0.0,55,0.00,,,0.00,Wunderground v.1.15,2013-05-28 04:05:00,
2013-05-28 00:10:00,57.1,41.1,29.31,SW,231,1.0,7.0,55,0.00,,,0.00,Wunderground v.1.15,2013-05-28 04:10:00,
2013-05-28 00:15:00,57.6,40.1,29.30,WSW,255,4.0,7.0,52,0.00,,,0.00,Wunderground v.1.15,2013-05-28 04:15:00,
2013-05-28 00:20:00,57.8,40.3,29.30,WSW,239,6.0,6.0,52,0.00,,,0.00,Wunderground v.1.15,2013-05-28 04:20:00,
2013-05-28 00:25:00,57.8,39.8,29.31,WSW,255,6.0,6.0,51,0.00,,,0.00,Wunderground v.1.15,2013-05-28 04:25:00,
2013-05-28 00:30:00,57.8,39.8,29.30,WSW,257,6.0,6.0,51,0.00,,,0.00,Wunderground v.1.15,2013-05-28 04:30:00,
2013-05-28 00:35:00,57.7,39.7,29.30,WSW,247,6.0,9.0,51,0.00,,,0.00,Wunderground v.1.15,2013-05-28 04:35:00,
2013-05-28 00:40:00,57.6,39.6,29.30,WSW,253,7.0,9.0,51,0.00,,,0.00,Wunderground v.1.15,2013-05-28 04:40:00,
2013-05-28 00:45:00,57.4,39.9,29.30,SW,220,7.0,9.0,52,0.00,,,0.00,Wunderground v.1.15,2013-05-28 04:45:00,
2013-05-28 00:50:00,57.3,39.8,29.30,WSW,251,6.0,7.0,52,0.00,,,0.00,Wunderground v.1.15,2013-05-28 04:50:00,
2013-05-28 00:55:00,57.1,39.6,29.30,WSW,252,6.0,8.0,52,0.00,,,0.00,Wunderground v.1.15,2013-05-28 04:55:00,
2013-05-28 01:05:00,56.8,39.8,29.30,West,271,8.0,8.0,53,0.00,,,0.00,Wunderground v.1.15,2013-05-28 05:05:00,
2013-05-28 01:10:00,56.7,39.7,29.30,West,279,8.0,8.0,53,0.00,,,0.00,Wunderground v.1.15,2013-05-28 05:10:00,
2013-05-28 01:15:00,56.4,40.4,29.30,West,272,7.0,8.0,55,0.00,,,0.00,Wunderground v.1.15,2013-05-28 05:15:00,
2013-05-28 01:20:00,56.2,40.2,29.30,WSW,250,8.0,10.0,55,0.00,,,0.00,Wunderground v.1.15,2013-05-28 05:20:00,
2013-05-28 01:25:00,56.1,40.1,29.30,WSW,248,8.0,10.0,55,0.00,,,0.00,Wunderground v.1.15,2013-05-28 05:25:00,
2013-05-28 01:30:00,55.9,40.0,29.30,WSW,258,8.0,8.0,55,0.00,,,0.00,Wunderground v.1.15,2013-05-28 05:30:00,
2013-05-28 01:39:00,56.0,39.6,29.30,WSW,248,8.0,10.0,54,0.00,,,0.00,Wunderground v.1.15,2013-05-28 05:39:00,
2013-05-28 01:44:00,56.5,39.6,29.29,WSW,247,9.0,10.0,53,0.00,,,0.00,Wunderground v.1.15,2013-05-28 05:44:00,
2013-05-28 01:49:00,56.6,39.7,29.29,West,269,9.0,10.0,53,0.00,,,0.00,Wunderground v.1.15,2013-05-28 05:49:00,
2013-05-28 01:54:00,56.5,39.6,29.29,WSW,254,8.0,10.0,53,0.00,,,0.00,Wunderground v.1.15,2013-05-28 05:54:00,
2013-05-28 01:59:00,56.4,39.5,29.29,WSW,255,8.0,8.0,53,0.00,,,0.00,Wunderground v.1.15,2013-05-28 05:59:00,
2013-05-28 02:09:00,56.0,39.6,29.29,WNW,284,8.0,8.0,54,0.00,,,0.00,Wunderground v.1.15,2013-05-28 06:09:00,
2013-05-28 02:14:00,55.9,40.0,29.29,West,267,7.0,8.0,55,0.00,,,0.00,Wunderground v.1.15,2013-05-28 06:14:00,
2013-05-28 02:19:00,55.8,39.9,29.28,WSW,245,7.0,7.0,55,0.00,,,0.00,Wunderground v.1.15,2013-05-28 06:19:00,
2013-05-28 02:24:00,56.0,39.6,29.28,WSW,253,7.0,8.0,54,0.00,,,0.00,Wunderground v.1.15,2013-05-28 06:24:00,
2013-05-28 02:29:00,56.3,39.4,29.28,WSW,242,7.0,7.0,53,0.00,,,0.00,Wunderground v.1.15,2013-05-28 06:29:00,
2013-05-28 02:34:00,56.6,39.7,29.28,WSW,258,6.0,7.0,53,0.00,,,0.00,Wunderground v.1.15,2013-05-28 06:34:00,
2013-05-28 02:40:00,56.5,39.6,29.28,WSW,257,6.0,6.0,53,0.00,,,0.00,Wunderground v.1.15,2013-05-28 06:40:00,
2013-05-28 02:45:00,56.5,39.6,29.28,WSW,255,5.0,6.0,53,0.00,,,0.00,Wunderground v.1.15,2013-05-28 06:45:00,
2013-05-28 02:54:00,56.6,39.7,29.27,SW,225,5.0,7.0,53,0.00,,,0.00,Wunderground v.1.15,2013-05-28 06:54:00,
2013-05-28 02:59:00,56.5,40.0,29.27,WSW,238,6.0,6.0,54,0.00,,,0.00,Wunderground v.1.15,2013-05-28 06:59:00,
2013-05-28 03:04:00,56.4,40.0,29.27,WSW,238,6.0,6.0,54,0.00,,,0.00,Wunderground v.1.15,2013-05-28 07:04:00,
2013-05-28 03:10:00,56.7,40.2,29.27,SW,234,7.0,7.0,54,0.00,,,0.00,Wunderground v.1.15,2013-05-28 07:10:00,
2013-05-28 03:15:00,56.8,40.3,29.27,SW,232,6.0,7.0,54,0.00,,,0.00,Wunderground v.1.15,2013-05-28 07:15:00,
2013-05-28 03:20:00,57.0,40.5,29.26,SW,226,6.0,9.0,54,0.00,,,0.00,Wunderground v.1.15,2013-05-28 07:20:00,
2013-05-28 03:25:00,57.3,40.8,29.26,SW,229,7.0,9.0,54,0.00,,,0.00,Wunderground v.1.15,2013-05-28 07:25:00,
2013-05-28 03:30:00,57.4,40.9,29.26,SW,235,7.0,7.0,54,0.00,,,0.00,Wunderground v.1.15,2013-05-28 07:30:00,
2013-05-28 03:35:00,57.5,41.0,29.26,SW,232,8.0,8.0,54,0.00,,,0.00,Wunderground v.1.15,2013-05-28 07:35:00,
2013-05-28 03:45:00,57.3,41.3,29.25,SW,217,8.0,11.0,55,0.00,,,0.00,Wunderground v.1.15,2013-05-28 07:45:00,
2013-05-28 03:50:00,57.2,41.2,29.25,SSW,211,9.0,9.0,55,0.00,,,0.00,Wunderground v.1.15,2013-05-28 07:50:00,
2013-05-28 03:55:00,57.1,41.5,29.25,SW,221,7.0,9.0,56,0.00,,,0.00,Wunderground v.1.15,2013-05-28 07:55:00,
2013-05-28 04:00:00,56.9,41.4,29.25,SSW,199,5.0,5.0,56,0.00,,,0.00,Wunderground v.1.15,2013-05-28 08:00:00,
2013-05-28 04:05:00,56.7,41.6,29.25,SSW,212,4.0,5.0,57,0.00,,,0.00,Wunderground v.1.15,2013-05-28 08:05:00,
2013-05-28 04:10:00,56.6,41.5,29.24,WSW,250,4.0,7.0,57,0.00,,,0.00,Wunderground v.1.15,2013-05-28 08:10:00,
2013-05-28 04:20:00,56.6,41.5,29.24,SW,221,6.0,9.0,57,0.00,,,0.00,Wunderground v.1.15,2013-05-28 08:20:00,
2013-05-28 04:25:00,56.8,41.7,29.24,SW,236,6.0,9.0,57,0.00,,,0.00,Wunderground v.1.15,2013-05-28 08:25:00,
2013-05-28 04:30:00,56.8,41.3,29.23,South,188,7.0,7.0,56,0.00,,,0.00,Wunderground v.1.15,2013-05-28 08:30:00,
2013-05-28 04:35:00,56.8,41.7,29.23,SW,221,6.0,8.0,57,0.00,,,0.00,Wunderground v.1.15,2013-05-28 08:35:00,
2013-05-28 04:40:00,56.7,41.6,29.23,SW,221,5.0,7.0,57,0.00,,,0.00,Wunderground v.1.15,2013-05-28 08:40:00,
2013-05-28 04:49:00,56.8,41.7,29.23,SSW,213,6.0,6.0,57,0.00,,,0.00,Wunderground v.1.15,2013-05-28 08:49:00,
2013-05-28 04:55:00,56.9,41.4,29.23,SSW,211,5.0,9.0,56,0.00,,,0.00,Wunderground v.1.15,2013-05-28 08:55:00,
2013-05-28 05:00:00,57.0,41.4,29.23,South,178,5.0,5.0,56,0.00,,,0.00,Wunderground v.1.15,2013-05-28 09:00:00,
2013-05-28 05:05:00,57.1,41.5,29.23,South,189,5.0,5.0,56,0.00,,,0.00,Wunderground v.1.15,2013-05-28 09:05:00,
2013-05-28 05:10:00,57.1,41.5,29.22,SW,214,6.0,8.0,56,0.00,,,0.00,Wunderground v.1.15,2013-05-28 09:10:00,
2013-05-28 05:15:00,57.1,41.5,29.22,SW,235,6.0,8.0,56,0.00,,,0.00,Wunderground v.1.15,2013-05-28 09:15:00,
2013-05-28 05:24:00,57.6,41.5,29.22,SW,233,11.0,14.0,55,0.00,,,0.00,Wunderground v.1.15,2013-05-28 09:24:00,
2013-05-28 05:29:00,57.8,41.3,29.22,SW,227,14.0,17.0,54,0.00,,,0.00,Wunderground v.1.15,2013-05-28 09:29:00,
2013-05-28 05:34:00,58.1,41.5,29.22,SW,229,15.0,17.0,54,0.00,,,0.00,Wunderground v.1.15,2013-05-28 09:34:00,
2013-05-28 05:39:00,58.3,41.7,29.22,SW,227,15.0,15.0,54,0.00,,,0.00,Wunderground v.1.15,2013-05-28 09:39:00,
2013-05-28 05:44:00,58.2,41.1,29.22,SW,226,13.0,15.0,53,0.00,,,0.00,Wunderground v.1.15,2013-05-28 09:44:00,
2013-05-28 05:54:00,58.2,41.6,29.21,SW,232,11.0,12.0,54,0.00,,,0.00,Wunderground v.1.15,2013-05-28 09:54:00,
2013-05-28 05:59:00,58.2,41.6,29.22,SW,225,10.0,13.0,54,0.00,,,0.00,Wunderground v.1.15,2013-05-28 09:59:00,
2013-05-28 06:04:00,58.0,41.9,29.21,SW,223,10.0,13.0,55,0.00,,,0.00,Wunderground v.1.15,2013-05-28 10:04:00,
2013-05-28 06:09:00,58.0,41.9,29.22,SSW,208,11.0,11.0,55,0.00,,,0.00,Wunderground v.1.15,2013-05-28 10:09:00,
2013-05-28 06:14:00,58.1,41.5,29.22,SSW,207,10.0,11.0,54,0.00,,,0.00,Wunderground v.1.15,2013-05-28 10:14:00,
2013-05-28 06:19:00,58.1,42.0,29.22,WSW,248,10.0,10.0,55,0.00,,,0.00,Wunderground v.1.15,2013-05-28 10:19:00,
2013-05-28 06:25:00,58.0,41.9,29.22,SW,226,10.0,11.0,55,0.00,,,0.00,Wunderground v.1.15,2013-05-28 10:25:00,
2013-05-28 06:30:00,57.9,42.3,29.22,WSW,239,9.0,9.0,56,0.00,,,0.00,Wunderground v.1.15,2013-05-28 10:30:00,
2013-05-28 06:35:00,57.8,42.2,29.22,SSW,209,8.0,9.0,56,0.00,,,0.00,Wunderground v.1.15,2013-05-28 10:35:00,
2013-05-28 06:40:00,57.7,42.1,29.22,WSW,253,7.0,7.0,56,0.00,,,0.00,Wunderground v.1.15,2013-05-28 10:40:00,
2013-05-28 06:45:00,57.7,42.6,29.22,SSW,213,7.0,8.0,57,0.00,,,0.00,Wunderground v.1.15,2013-05-28 10:45:00,
2013-05-28 06:50:00,57.6,42.9,29.22,SW,216,5.0,5.0,58,0.00,,,0.00,Wunderground v.1.15,2013-05-28 10:50:00,
2013-05-28 07:00:00,57.5,43.3,29.22,SW,228,5.0,5.0,59,0.00,,,0.00,Wunderground v.1.15,2013-05-28 11:00:00,
2013-05-28 07:05:00,57.4,44.1,29.22,SW,219,5.0,5.0,61,0.00,,,0.00,Wunderground v.1.15,2013-05-28 11:05:00,
2013-05-28 07:10:00,57.4,43.6,29.22,SW,234,4.0,4.0,60,0.00,,,0.00,Wunderground v.1.15,2013-05-28 11:10:00,
2013-05-28 07:15:00,57.3,43.5,29.22,WSW,239,4.0,5.0,60,0.00,,,0.00,Wunderground v.1.15,2013-05-28 11:15:00,
2013-05-28 07:20:00,57.1,43.3,29.22,SW,227,6.0,7.0,60,0.00,,,0.00,Wunderground v.1.15,2013-05-28 11:20:00,
2013-05-28 07:30:00,57.0,44.1,29.22,WSW,237,9.0,11.0,62,0.00,,,0.00,Wunderground v.1.15,2013-05-28 11:30:00,
2013-05-28 07:35:00,56.9,44.8,29.22,WSW,255,8.0,11.0,64,0.00,,,0.00,Wunderground v.1.15,2013-05-28 11:35:00,
2013-05-28 07:40:00,56.7,45.1,29.22,SW,232,8.0,9.0,65,0.00,,,0.00,Wunderground v.1.15,2013-05-28 11:40:00,
2013-05-28 07:45:00,56.4,45.6,29.22,WSW,255,8.0,10.0,67,0.00,,,0.00,Wunderground v.1.15,2013-05-28 11:45:00,
2013-05-28 07:50:00,56.2,45.8,29.22,WSW,257,9.0,9.0,68,0.00,,,0.00,Wunderground v.1.15,2013-05-28 11:50:00,
2013-05-28 07:55:00,55.9,46.3,29.22,West,263,11.0,15.0,70,0.00,,,0.00,Wunderground v.1.15,2013-05-28 11:55:00,
2013-05-28 08:05:00,55.0,47.2,29.22,WSW,244,12.0,14.0,75,0.00,,,0.00,Wunderground v.1.15,2013-05-28 12:05:00,
2013-05-28 08:10:00,54.6,47.9,29.22,SW,215,11.0,11.0,78,0.00,,,0.00,Wunderground v.1.15,2013-05-28 12:10:00,
2013-05-28 08:15:00,54.2,47.8,29.22,WSW,246,11.0,11.0,79,0.00,,,0.00,Wunderground v.1.15,2013-05-28 12:15:00,
2013-05-28 08:20:00,53.9,48.2,29.23,WSW,254,10.0,10.0,81,0.00,,,0.01,Wunderground v.1.15,2013-05-28 12:20:00,
2013-05-28 08:25:00,53.6,48.6,29.23,WSW,255,9.0,10.0,83,0.00,,,0.01,Wunderground v.1.15,2013-05-28 12:25:00,
2013-05-28 08:34:00,53.2,48.8,29.23,SW,225,8.0,9.0,85,0.04,,,0.02,Wunderground v.1.15,2013-05-28 12:34:00,
2013-05-28 08:39:00,53.1,49.0,29.23,WSW,240,9.0,11.0,86,0.04,,,0.02,Wunderground v.1.15,2013-05-28 12:39:00,
2013-05-28 08:44:00,53.0,49.2,29.23,WSW,238,9.0,11.0,87,0.04,,,0.02,Wunderground v.1.15,2013-05-28 12:44:00,
2013-05-28 08:49:00,52.9,49.1,29.23,SW,225,9.0,12.0,87,0.00,,,0.02,Wunderground v.1.15,2013-05-28 12:49:00,
2013-05-28 08:54:00,52.8,49.3,29.23,WSW,244,9.0,12.0,88,0.00,,,0.02,Wunderground v.1.15,2013-05-28 12:54:00,
2013-05-28 08:59:00,52.9,49.4,29.22,SW,231,10.0,10.0,88,0.00,,,0.03,Wunderground v.1.15,2013-05-28 12:59:00,
2013-05-28 09:09:00,52.8,49.9,29.22,SW,230,8.0,9.0,90,0.00,,,0.03,Wunderground v.1.15,2013-05-28 13:09:00,
2013-05-28 09:14:00,52.9,50.0,29.22,SW,235,9.0,11.0,90,0.00,,,0.03,Wunderground v.1.15,2013-05-28 13:14:00,
2013-05-28 09:19:00,53.0,50.4,29.22,SW,236,9.0,9.0,91,0.00,,,0.03,Wunderground v.1.15,2013-05-28 13:19:00,
2013-05-28 09:24:00,53.0,50.4,29.22,WSW,241,8.0,9.0,91,0.00,,,0.04,Wunderground v.1.15,2013-05-28 13:24:00,
2013-05-28 09:29:00,52.9,50.6,29.22,WSW,257,8.0,8.0,92,0.00,,,0.04,Wunderground v.1.15,2013-05-28 13:29:00,
2013-05-28 09:39:00,53.2,51.2,29.22,WSW,249,6.0,7.0,93,0.00,,,0.04,Wunderground v.1.15,2013-05-28 13:39:00,
2013-05-28 09:44:00,53.3,51.3,29.22,SW,232,6.0,7.0,93,0.00,,,0.04,Wunderground v.1.15,2013-05-28 13:44:00,
2013-05-28 09:49:00,53.3,51.3,29.22,WSW,240,8.0,9.0,93,0.00,,,0.04,Wunderground v.1.15,2013-05-28 13:49:00,
2013-05-28 09:54:00,53.3,51.3,29.22,WSW,239,8.0,11.0,93,0.00,,,0.05,Wunderground v.1.15,2013-05-28 13:54:00,
2013-05-28 09:59:00,53.4,51.4,29.22,SW,219,6.0,6.0,93,0.00,,,0.05,Wunderground v.1.15,2013-05-28 13:59:00,
2013-05-28 10:04:00,53.4,51.4,29.22,SW,235,5.0,6.0,93,0.00,,,0.05,Wunderground v.1.15,2013-05-28 14:04:00,
2013-05-28 10:10:00,53.3,51.3,29.22,WSW,246,5.0,7.0,93,0.00,,,0.05,Wunderground v.1.15,2013-05-28 14:10:00,
2013-05-28 10:15:00,53.3,51.6,29.22,SW,219,6.0,7.0,94,0.00,,,0.05,Wunderground v.1.15,2013-05-28 14:15:00,
2013-05-28 10:20:00,53.5,51.8,29.22,SSW,205,6.0,8.0,94,0.00,,,0.05,Wunderground v.1.15,2013-05-28 14:20:00,
2013-05-28 10:25:00,53.5,51.8,29.22,SW,215,5.0,8.0,94,0.00,,,0.06,Wunderground v.1.15,2013-05-28 14:25:00,
2013-05-28 10:30:00,53.6,51.9,29.21,SSW,213,5.0,5.0,94,0.00,,,0.06,Wunderground v.1.15,2013-05-28 14:30:00,
2013-05-28 10:40:00,53.5,51.8,29.21,SW,221,4.0,7.0,94,0.00,,,0.06,Wunderground v.1.15,2013-05-28 14:40:00,
2013-05-28 10:45:00,53.4,52.0,29.21,SSE,165,5.0,7.0,95,0.00,,,0.06,Wunderground v.1.15,2013-05-28 14:45:00,
2013-05-28 10:50:00,53.3,51.9,29.21,SSW,200,6.0,6.0,95,0.00,,,0.06,Wunderground v.1.15,2013-05-28 14:50:00,
2013-05-28 10:55:00,53.2,51.8,29.21,SW,219,7.0,10.0,95,0.00,,,0.06,Wunderground v.1.15,2013-05-28 14:55:00,
2013-05-28 11:00:00,53.0,51.6,29.21,SW,225,8.0,8.0,95,0.00,,,0.06,Wunderground v.1.15,2013-05-28 15:00:00,
2013-05-28 11:05:00,53.1,51.7,29.21,WSW,251,8.0,8.0,95,0.00,,,0.07,Wunderground v.1.15,2013-05-28 15:05:00,
2013-05-28 11:15:00,53.4,52.3,29.20,SSW,209,5.0,6.0,96,0.00,,,0.07,Wunderground v.1.15,2013-05-28 15:15:00,
2013-05-28 11:20:00,53.6,52.5,29.20,WSW,254,6.0,7.0,96,0.00,,,0.07,Wunderground v.1.15,2013-05-28 15:20:00,
2013-05-28 11:25:00,53.6,52.5,29.20,SW,236,7.0,9.0,96,0.00,,,0.07,Wunderground v.1.15,2013-05-28 15:25:00,
2013-05-28 11:30:00,53.7,52.6,29.20,WSW,238,8.0,10.0,96,0.00,,,0.07,Wunderground v.1.15,2013-05-28 15:30:00,
2013-05-28 11:35:00,53.9,52.8,29.20,SSW,194,8.0,10.0,96,0.00,,,0.07,Wunderground v.1.15,2013-05-28 15:35:00,
2013-05-28 11:40:00,53.9,52.8,29.20,SW,217,7.0,7.0,96,0.00,,,0.07,Wunderground v.1.15,2013-05-28 15:40:00,
2013-05-28 11:50:00,54.3,53.2,29.20,WSW,241,8.0,8.0,96,0.00,,,0.07,Wunderground v.1.15,2013-05-28 15:50:00,
2013-05-28 11:55:00,54.4,53.3,29.20,SW,230,9.0,9.0,96,0.00,,,0.08,Wunderground v.1.15,2013-05-28 15:55:00,
2013-05-28 12:00:00,54.6,53.5,29.20,WSW,240,8.0,8.0,96,0.00,,,0.08,Wunderground v.1.15,2013-05-28 16:00:00,
2013-05-28 12:05:00,54.8,53.7,29.20,SW,217,7.0,11.0,96,0.00,,,0.08,Wunderground v.1.15,2013-05-28 16:05:00,
2013-05-28 12:10:00,55.0,53.9,29.20,SW,236,9.0,9.0,96,0.00,,,0.08,Wunderground v.1.15,2013-05-28 16:10:00,
2013-05-28 12:20:00,55.4,54.3,29.20,SW,232,9.0,9.0,96,0.00,,,0.08,Wunderground v.1.15,2013-05-28 16:20:00,
2013-05-28 12:25:00,55.6,54.5,29.19,SW,220,9.0,12.0,96,0.00,,,0.08,Wunderground v.1.15,2013-05-28 16:25:00,
2013-05-28 12:30:00,55.8,54.7,29.19,WSW,246,10.0,10.0,96,0.00,,,0.08,Wunderground v.1.15,2013-05-28 16:30:00,
2013-05-28 12:35:00,55.9,54.8,29.19,SW,228,11.0,11.0,96,0.00,,,0.08,Wunderground v.1.15,2013-05-28 16:35:00,
2013-05-28 12:40:00,56.2,55.1,29.19,WSW,242,10.0,17.0,96,0.00,,,0.08,Wunderground v.1.15,2013-05-28 16:40:00,
2013-05-28 12:45:00,56.4,55.3,29.18,SW,233,9.0,17.0,96,0.00,,,0.08,Wunderground v.1.15,2013-05-28 16:45:00,
2013-05-28 12:55:00,56.8,55.7,29.19,SW,223,10.0,14.0,96,0.00,,,0.08,Wunderground v.1.15,2013-05-28 16:55:00,
2013-05-28 13:00:00,57.0,55.9,29.19,WSW,245,11.0,18.0,96,0.00,,,0.08,Wunderground v.1.15,2013-05-28 17:00:00,
2013-05-28 13:05:00,57.4,56.3,29.19,WSW,249,11.0,18.0,96,0.00,,,0.08,Wunderground v.1.15,2013-05-28 17:05:00,
2013-05-28 13:10:00,57.8,56.7,29.18,WSW,240,10.0,10.0,96,0.00,,,0.08,Wunderground v.1.15,2013-05-28 17:10:00,
2013-05-28 13:15:00,58.3,57.2,29.19,SW,234,9.0,10.0,96,0.00,,,0.08,Wunderground v.1.15,2013-05-28 17:15:00,
2013-05-28 13:24:00,58.6,57.2,29.19,SW,225,10.0,10.0,95,0.00,,,0.09,Wunderground v.1.15,2013-05-28 17:24:00,
2013-05-28 13:29:00,59.0,57.6,29.18,SW,218,12.0,12.0,95,0.00,,,0.09,Wunderground v.1.15,2013-05-28 17:29:00,
2013-05-28 13:34:00,59.5,58.1,29.18,WSW,250,11.0,12.0,95,0.00,,,0.09,Wunderground v.1.15,2013-05-28 17:34:00,
2013-05-28 13:39:00,59.8,58.1,29.18,SW,219,10.0,10.0,94,0.00,,,0.09,Wunderground v.1.15,2013-05-28 17:39:00,
2013-05-28 13:44:00,59.9,58.2,29.18,WSW,240,11.0,15.0,94,0.00,,,0.09,Wunderground v.1.15,2013-05-28 17:44:00,
2013-05-28 13:49:00,60.4,58.7,29.18,WSW,244,11.0,11.0,94,0.00,,,0.09,Wunderground v.1.15,2013-05-28 17:49:00,
2013-05-28 13:59:00,61.2,59.2,29.18,SW,236,8.0,9.0,93,0.00,,,0.09,Wunderground v.1.15,2013-05-28 17:59:00,
2013-05-28 14:04:00,61.5,59.2,29.18,WSW,246,9.0,11.0,92,0.00,,,0.09,Wunderground v.1.15,2013-05-28 18:04:00,
2013-05-28 14:09:00,61.7,59.4,29.18,WSW,252,9.0,11.0,92,0.00,,,0.09,Wunderground v.1.15,2013-05-28 18:09:00,
2013-05-28 14:14:00,62.1,59.7,29.18,West,276,9.0,11.0,92,0.00,,,0.09,Wunderground v.1.15,2013-05-28 18:14:00,
2013-05-28 14:19:00,62.2,59.5,29.18,West,275,9.0,9.0,91,0.00,,,0.09,Wunderground v.1.15,2013-05-28 18:19:00,
2013-05-28 14:29:00,62.5,59.5,29.17,WSW,246,7.0,9.0,90,0.00,,,0.09,Wunderground v.1.15,2013-05-28 18:29:00,
2013-05-28 14:34:00,62.5,59.8,29.17,West,261,8.0,9.0,91,0.00,,,0.09,Wunderground v.1.15,2013-05-28 18:34:00,
2013-05-28 14:39:00,62.7,59.7,29.17,WSW,240,8.0,9.0,90,0.00,,,0.09,Wunderground v.1.15,2013-05-28 18:39:00,
2013-05-28 14:44:00,62.9,59.9,29.18,WSW,258,6.0,9.0,90,0.00,,,0.10,Wunderground v.1.15,2013-05-28 18:44:00,
2013-05-28 14:49:00,63.1,60.1,29.18,West,271,6.0,6.0,90,0.00,,,0.10,Wunderground v.1.15,2013-05-28 18:49:00,
2013-05-28 14:54:00,63.1,59.8,29.18,WSW,254,6.0,6.0,89,0.00,,,0.10,Wunderground v.1.15,2013-05-28 18:54:00,
2013-05-28 15:00:00,63.4,60.4,29.18,West,269,3.0,3.0,90,0.00,,,0.10,Wunderground v.1.15,2013-05-28 19:00:00,
2013-05-28 15:05:00,63.4,60.4,29.18,West,267,0.0,5.0,90,0.00,,,0.10,Wunderground v.1.15,2013-05-28 19:05:00,
2013-05-28 15:10:00,63.4,60.4,29.18,WSW,250,0.0,5.0,90,0.00,,,0.10,Wunderground v.1.15,2013-05-28 19:10:00,
2013-05-28 15:15:00,63.2,60.2,29.18,West,274,1.0,5.0,90,0.00,,,0.10,Wunderground v.1.15,2013-05-28 19:15:00,
2013-05-28 15:24:00,63.2,60.5,29.18,WSW,242,1.0,5.0,91,0.00,,,0.10,Wunderground v.1.15,2013-05-28 19:24:00,
2013-05-28 15:30:00,63.1,60.4,29.17,WSW,238,1.0,5.0,91,0.00,,,0.10,Wunderground v.1.15,2013-05-28 19:30:00,
2013-05-28 15:35:00,62.9,60.2,29.18,WSW,238,3.0,5.0,91,0.00,,,0.10,Wunderground v.1.15,2013-05-28 19:35:00,
2013-05-28 15:40:00,62.8,60.4,29.17,SW,233,4.0,6.0,92,0.00,,,0.10,Wunderground v.1.15,2013-05-28 19:40:00,
2013-05-28 15:45:00,62.9,60.5,29.17,WSW,242,4.0,6.0,92,0.00,,,0.10,Wunderground v.1.15,2013-05-28 19:45:00,
2013-05-28 15:50:00,62.7,60.3,29.17,SW,234,5.0,5.0,92,0.00,,,0.10,Wunderground v.1.15,2013-05-28 19:50:00,
2013-05-28 15:55:00,62.8,60.7,29.17,SW,236,5.0,6.0,93,0.00,,,0.10,Wunderground v.1.15,2013-05-28 19:55:00,
2013-05-28 16:05:00,62.7,60.6,29.16,SW,233,5.0,6.0,93,0.00,,,0.10,Wunderground v.1.15,2013-05-28 20:05:00,
2013-05-28 16:10:00,63.0,60.9,29.16,WSW,240,4.0,6.0,93,0.00,,,0.10,Wunderground v.1.15,2013-05-28 20:10:00,
2013-05-28 16:15:00,63.1,61.0,29.16,SW,218,2.0,6.0,93,0.00,,,0.10,Wunderground v.1.15,2013-05-28 20:15:00,
2013-05-28 16:20:00,63.3,61.2,29.16,SSW,213,3.0,6.0,93,0.00,,,0.10,Wunderground v.1.15,2013-05-28 20:20:00,
2013-05-28 16:25:00,63.4,61.0,29.15,SW,228,4.0,7.0,92,0.00,,,0.10,Wunderground v.1.15,2013-05-28 20:25:00,
2013-05-28 16:30:00,63.4,61.0,29.15,SW,236,6.0,6.0,92,0.00,,,0.10,Wunderground v.1.15,2013-05-28 20:30:00,
2013-05-28 16:40:00,63.7,61.3,29.15,WSW,245,4.0,9.0,92,0.00,,,0.10,Wunderground v.1.15,2013-05-28 20:40:00,
2013-05-28 16:45:00,63.6,61.2,29.15,SW,232,5.0,9.0,92,0.00,,,0.10,Wunderground v.1.15,2013-05-28 20:45:00,
2013-05-28 16:50:00,63.4,60.7,29.15,SW,236,6.0,7.0,91,0.00,,,0.10,Wunderground v.1.15,2013-05-28 20:50:00,
2013-05-28 16:55:00,63.5,61.1,29.15,WSW,244,6.0,7.0,92,0.00,,,0.10,Wunderground v.1.15,2013-05-28 20:55:00,
2013-05-28 17:00:00,63.4,61.0,29.15,WSW,241,6.0,6.0,92,0.00,,,0.11,Wunderground v.1.15,2013-05-28 21:00:00,
2013-05-28 17:10:00,63.3,61.2,29.14,SW,235,8.0,8.0,93,0.00,,,0.11,Wunderground v.1.15,2013-05-28 21:10:00,
2013-05-28 17:15:00,63.2,61.1,29.14,SW,221,8.0,8.0,93,0.00,,,0.11,Wunderground v.1.15,2013-05-28 21:15:00,
2013-05-28 17:20:00,63.4,61.6,29.14,SW,225,7.0,7.0,94,0.00,,,0.11,Wunderground v.1.15,2013-05-28 21:20:00,
2013-05-28 17:25:00,63.3,61.5,29.13,SW,232,6.0,9.0,94,0.00,,,0.11,Wunderground v.1.15,2013-05-28 21:25:00,
2013-05-28 17:30:00,63.2,61.4,29.13,WSW,243,6.0,9.0,94,0.00,,,0.11,Wunderground v.1.15,2013-05-28 21:30:00,
2013-05-28 17:35:00,63.1,61.3,29.13,SW,236,8.0,13.0,94,0.00,,,0.11,Wunderground v.1.15,2013-05-28 21:35:00,
2013-05-28 17:44:00,63.0,61.2,29.12,SW,219,9.0,12.0,94,0.00,,,0.11,Wunderground v.1.15,2013-05-28 21:44:00,
2013-05-28 17:49:00,63.0,61.2,29.12,WSW,258,9.0,10.0,94,0.00,,,0.11,Wunderground v.1.15,2013-05-28 21:49:00,
2013-05-28 17:54:00,63.1,61.3,29.12,WSW,250,8.0,10.0,94,0.00,,,0.11,Wunderground v.1.15,2013-05-28 21:54:00,
2013-05-28 17:59:00,63.0,60.9,29.13,SW,222,7.0,11.0,93,0.00,,,0.11,Wunderground v.1.15,2013-05-28 21:59:00,
2013-05-28 18:04:00,62.9,60.8,29.12,WSW,238,9.0,12.0,93,0.00,,,0.11,Wunderground v.1.15,2013-05-28 22:04:00,
2013-05-28 18:14:00,63.1,61.0,29.12,SSW,195,7.0,10.0,93,0.00,,,0.11,Wunderground v.1.15,2013-05-28 22:14:00,
2013-05-28 18:19:00,63.1,61.0,29.12,SW,234,6.0,13.0,93,0.00,,,0.11,Wunderground v.1.15,2013-05-28 22:19:00,
2013-05-28 18:24:00,62.9,60.8,29.12,SW,216,8.0,13.0,93,0.00,,,0.11,Wunderground v.1.15,2013-05-28 22:24:00,
2013-05-28 18:29:00,62.9,60.8,29.12,WSW,248,9.0,10.0,93,0.00,,,0.11,Wunderground v.1.15,2013-05-28 22:29:00,
2013-05-28 18:34:00,62.8,60.7,29.12,WSW,240,8.0,10.0,93,0.00,,,0.11,Wunderground v.1.15,2013-05-28 22:34:00,
2013-05-28 18:39:00,62.7,60.6,29.12,South,188,8.0,8.0,93,0.00,,,0.11,Wunderground v.1.15,2013-05-28 22:39:00,
2013-05-28 18:49:00,62.5,60.4,29.11,WSW,238,8.0,8.0,93,0.00,,,0.11,Wunderground v.1.15,2013-05-28 22:49:00,
2013-05-28 18:54:00,62.5,60.4,29.11,SSW,211,9.0,11.0,93,0.00,,,0.11,Wunderground v.1.15,2013-05-28 22:54:00,
2013-05-28 18:59:00,62.4,60.3,29.11,SW,219,8.0,11.0,93,0.00,,,0.11,Wunderground v.1.15,2013-05-28 22:59:00,
2013-05-28 19:04:00,62.4,60.3,29.11,SW,216,7.0,11.0,93,0.00,,,0.11,Wunderground v.1.15,2013-05-28 23:04:00,
2013-05-28 19:09:00,62.4,60.3,29.11,SW,221,5.0,8.0,93,0.00,,,0.11,Wunderground v.1.15,2013-05-28 23:09:00,
2013-05-28 19:15:00,62.3,60.2,29.11,SW,219,5.0,8.0,93,0.00,,,0.11,Wunderground v.1.15,2013-05-28 23:15:00,
2013-05-28 19:20:00,62.2,60.2,29.10,SSW,194,6.0,6.0,93,0.00,,,0.11,Wunderground v.1.15,2013-05-28 23:20:00,
2013-05-28 19:29:00,62.2,60.5,29.10,SSW,210,5.0,8.0,94,0.00,,,0.11,Wunderground v.1.15,2013-05-28 23:29:00,
2013-05-28 19:34:00,62.1,60.4,29.10,SW,220,5.0,8.0,94,0.00,,,0.11,Wunderground v.1.15,2013-05-28 23:34:00,
2013-05-28 19:39:00,62.0,60.3,29.10,SSW,196,4.0,4.0,94,0.00,,,0.11,Wunderground v.1.15,2013-05-28 23:39:00,
2013-05-28 19:44:00,61.9,60.2,29.11,SSE,163,1.0,5.0,94,0.00,,,0.11,Wunderground v.1.15,2013-05-28 23:44:00,
2013-05-28 19:50:00,61.8,60.1,29.13,ENE,75,2.0,5.0,94,0.00,,,0.11,Wunderground v.1.15,2013-05-28 23:50:00,
2013-05-28 19:55:00,61.7,60.0,29.16,NE,51,6.0,7.0,94,0.00,,,0.11,Wunderground v.1.15,2013-05-28 23:55:00,
2013-05-28 20:00:00,61.6,60.2,29.16,NE,49,7.0,7.0,95,0.00,,,0.11,Wunderground v.1.15,2013-05-29 00:00:00,
2013-05-28 20:05:00,61.4,60.0,29.15,NE,56,3.0,7.0,95,0.00,,,0.11,Wunderground v.1.15,2013-05-29 00:05:00,
2013-05-28 20:10:00,61.3,59.9,29.15,NE,56,0.0,5.0,95,0.00,,,0.11,Wunderground v.1.15,2013-05-29 00:10:00,
2013-05-28 20:15:00,61.2,59.8,29.12,SSE,158,1.0,5.0,95,0.00,,,0.11,Wunderground v.1.15,2013-05-29 00:15:00,
2013-05-28 20:25:00,60.8,59.7,29.11,SSW,199,3.0,3.0,96,0.00,,,0.11,Wunderground v.1.15,2013-05-29 00:25:00,
2013-05-28 20:30:00,60.7,59.6,29.11,SSE,155,3.0,3.0,96,0.00,,,0.11,Wunderground v.1.15,2013-05-29 00:30:00,
2013-05-28 20:35:00,60.7,59.6,29.11,SSE,167,2.0,6.0,96,0.00,,,0.11,Wunderground v.1.15,2013-05-29 00:35:00,
2013-05-28 20:40:00,60.5,59.6,29.11,SSW,192,3.0,3.0,97,0.00,,,0.12,Wunderground v.1.15,2013-05-29 00:40:00,
2013-05-28 20:45:00,60.5,59.4,29.10,South,190,4.0,6.0,96,0.00,,,0.12,Wunderground v.1.15,2013-05-29 00:45:00,
2013-05-28 20:55:00,60.5,59.6,29.10,WSW,246,6.0,6.0,97,0.00,,,0.12,Wunderground v.1.15,2013-05-29 00:55:00,
2013-05-28 21:00:00,60.5,59.6,29.10,SW,219,7.0,13.0,97,0.00,,,0.12,Wunderground v.1.15,2013-05-29 01:00:00,
2013-05-28 21:05:00,60.5,59.6,29.10,SW,220,9.0,13.0,97,0.00,,,0.12,Wunderground v.1.15,2013-05-29 01:05:00,
2013-05-28 21:10:00,60.7,59.8,29.10,WSW,246,10.0,12.0,97,0.00,,,0.12,Wunderground v.1.15,2013-05-29 01:10:00,
2013-05-28 21:15:00,60.8,59.9,29.09,SW,226,11.0,13.0,97,0.00,,,0.12,Wunderground v.1.15,2013-05-29 01:15:00,
2013-05-28 21:20:00,60.9,60.0,29.09,WSW,253,12.0,12.0,97,0.00,,,0.12,Wunderground v.1.15,2013-05-29 01:20:00,
2013-05-28 21:30:00,61.1,60.2,29.08,SW,236,9.0,9.0,97,0.00,,,0.12,Wunderground v.1.15,2013-05-29 01:30:00,
2013-05-28 21:35:00,61.2,60.3,29.08,SSW,205,8.0,9.0,97,0.00,,,0.12,Wunderground v.1.15,2013-05-29 01:35:00,
2013-05-28 21:40:00,61.4,60.5,29.08,SW,225,6.0,6.0,97,0.00,,,0.12,Wunderground v.1.15,2013-05-29 01:40:00,
2013-05-28 21:45:00,61.5,60.6,29.08,SW,219,6.0,7.0,97,0.00,,,0.12,Wunderground v.1.15,2013-05-29 01:45:00,
2013-05-28 21:50:00,61.6,60.7,29.08,SW,228,7.0,8.0,97,0.00,,,0.12,Wunderground v.1.15,2013-05-29 01:50:00,
2013-05-28 21:59:00,61.6,60.7,29.09,WSW,251,6.0,6.0,97,0.00,,,0.12,Wunderground v.1.15,2013-05-29 01:59:00,
2013-05-28 22:04:00,61.7,60.8,29.08,WSW,239,7.0,7.0,97,0.00,,,0.12,Wunderground v.1.15,2013-05-29 02:04:00,
2013-05-28 22:09:00,61.7,60.8,29.08,SW,233,7.0,8.0,97,0.00,,,0.12,Wunderground v.1.15,2013-05-29 02:09:00,
2013-05-28 22:14:00,61.7,60.8,29.08,SW,233,7.0,8.0,97,0.00,,,0.12,Wunderground v.1.15,2013-05-29 02:14:00,
2013-05-28 22:19:00,61.8,60.9,29.07,SW,227,8.0,8.0,97,0.00,,,0.12,Wunderground v.1.15,2013-05-29 02:19:00,
2013-05-28 22:24:00,61.8,60.9,29.08,WSW,237,8.0,11.0,97,0.00,,,0.12,Wunderground v.1.15,2013-05-29 02:24:00,
2013-05-28 22:34:00,61.9,61.0,29.08,West,259,8.0,11.0,97,0.00,,,0.12,Wunderground v.1.15,2013-05-29 02:34:00,
2013-05-28 22:39:00,62.0,61.1,29.09,WSW,256,8.0,13.0,97,0.00,,,0.12,Wunderground v.1.15,2013-05-29 02:39:00,
2013-05-28 22:44:00,62.0,61.1,29.08,WSW,256,9.0,15.0,97,0.00,,,0.12,Wunderground v.1.15,2013-05-29 02:44:00,
2013-05-28 22:49:00,62.0,61.1,29.08,West,265,10.0,10.0,97,0.00,,,0.12,Wunderground v.1.15,2013-05-29 02:49:00,
2013-05-28 22:54:00,62.0,61.1,29.08,WSW,238,11.0,14.0,97,0.00,,,0.12,Wunderground v.1.15,2013-05-29 02:54:00,
2013-05-28 23:04:00,62.0,61.1,29.08,West,261,10.0,11.0,97,0.00,,,0.12,Wunderground v.1.15,2013-05-29 03:04:00,
2013-05-28 23:09:00,62.0,61.1,29.08,SW,215,10.0,10.0,97,0.00,,,0.12,Wunderground v.1.15,2013-05-29 03:09:00,
2013-05-28 23:14:00,62.0,60.8,29.08,WSW,239,11.0,11.0,96,0.00,,,0.12,Wunderground v.1.15,2013-05-29 03:14:00,
2013-05-28 23:19:00,61.9,60.7,29.08,WSW,238,11.0,11.0,96,0.00,,,0.12,Wunderground v.1.15,2013-05-29 03:19:00,
2013-05-28 23:24:00,61.9,60.7,29.08,SW,217,10.0,11.0,96,0.00,,,0.12,Wunderground v.1.15,2013-05-29 03:24:00,
2013-05-28 23:29:00,61.8,60.6,29.07,WSW,242,9.0,9.0,96,0.00,,,0.12,Wunderground v.1.15,2013-05-29 03:29:00,
2013-05-28 23:35:00,61.8,60.6,29.07,WSW,252,9.0,9.0,96,0.00,,,0.12,Wunderground v.1.15,2013-05-29 03:35:00,
2013-05-28 23:44:00,61.7,60.5,29.08,WSW,243,9.0,12.0,96,0.00,,,0.12,Wunderground v.1.15,2013-05-29 03:44:00,
2013-05-28 23:49:00,61.9,61.0,29.07,WSW,257,9.0,9.0,97,0.00,,,0.12,Wunderground v.1.15,2013-05-29 03:49:00,
2013-05-28 23:54:00,62.0,61.1,29.07,WSW,242,10.0,10.0,97,0.00,,,0.12,Wunderground v.1.15,2013-05-29 03:54:00,